Location: downtown San Diego
(32.7310°N, 117.1990°W)
Time: 06:20:54
(UTC-07:00)

H-2A R/B - Pass Details

Date: 19 May 2017
Orbit: 248 x 33109 km, 28.3° (Epoch: 28 May)

Event Time Altitude Azimuth Distance (km) Brightness Sun altitude
Rises 12:40:56 0° 220° (SW) 17,967 9.1 77.2°
Reaches altitude 10° 13:03:56 10° 216° (SW) 21,493 9.7 76.6°
Maximum altitude 21:07:35 71° 196° (SSW) 2,600 4.5 -15.9°
Enters shadow 21:13:04 23° 116° (ESE) 2,518 4.0 -16.8°
